Location: Berg
(48.3697°N, 10.1525°E)
Time: 12:42:39
(UTC+00:00)

Daily predictions for brighter satellites

Satellite Brightness Start Highest point End
(mag) Time Altitude Azimuth Time Altitude Azimuth Time Altitude Azimuth
Cosmos 1315 Rocket 2.8 15:55:55 10° S 15:59:40 55° E 16:03:26 10° NNE
Cosmos 292 Rocket 4.1 15:57:53 10° SSW 16:02:41 71° WNW 16:07:29 10° NNE
CENTAUR R/B 2.6 15:59:55 10° SW 16:05:31 83° NW 16:12:41 10° NE
NOSS 2-2 (D) 4.0 16:02:52 10° S 16:05:52 27° ESE 16:08:31 10° ENE
Cosmos 1782 3.6 16:04:37 10° SSE 16:07:41 26° E 16:10:44 10° NNE
Cosmos 2263 Rocket 3.8 16:04:53 10° N 16:08:11 15° NE 16:11:29 10° ENE
YAOGAN 1 4.3 16:06:57 10° ENE 16:08:28 12° ENE 16:10:00 10° NE
Cosmos 1607 4.3 16:07:39 10° NNW 16:13:35 44° NE 16:19:34 10° ESE
SL-16 R/B 2.6 16:08:11 10° NNE 16:14:28 82° ESE 16:20:40 10° SSW
Cosmos 1356 Rocket 3.3 16:10:28 10° S 16:14:30 78° E 16:18:36 10° NNE
NOSS 2-2 (E) 4.0 16:11:59 10° S 16:14:58 27° SE 16:17:21 12° ENE
Cosmos 405 Rocket 2.4 16:12:00 10° N 16:15:12 50° ENE 16:18:21 10° SSE
Cosmos 1733 2.8 16:13:45 10° NNE 16:15:19 21° ENE 16:16:52 10° SE
CORIOLIS 4.1 16:12:07 10° SSE 16:17:21 62° ENE 16:22:38 10° N
Cosmos 2227 Rocket 3.2 16:13:13 10° N 16:17:46 24° NE 16:22:18 10° E
SJ-12 4.3 16:17:14 10° SE 16:20:41 34° ENE 16:24:08 10° N
Cosmos 2369 Rocket 3.7 16:17:22 10° WSW 16:22:20 31° NW 16:27:22 10° NNE
Cosmos 773 Rocket 4.1 16:17:48 10° NNW 16:22:55 55° ENE 16:28:02 10° SE
USA 215 3.9 16:17:08 10° ENE 16:23:11 42° N 16:29:17 10° WNW
Cosmos 2228 2.9 16:22:30 10° S 16:26:44 88° E 16:31:01 10° N
ARIANE 5 R/B 2.6 16:23:24 10° SE 16:28:18 56° ENE 16:33:19 10° N
Cosmos 1758 Rocket 3.5 16:24:57 10° N 16:29:14 60° ENE 16:33:28 10° SSE
Intercosmos 24 3.6 16:25:40 10° N 16:29:47 77° E 16:33:18 10° SSE
Cosmos 2208 Rocket 3.9 16:25:37 10° NNW 16:30:46 63° ENE 16:35:54 10° SE
SPOT 1/Viking Rocket 4.3 16:26:49 10° SE 16:31:20 31° ENE 16:35:51 10° N
BREEZE M DEB (TANK) 3.9 16:15:52 10° WNW 16:31:29 81° SSW 16:35:31 10° ESE
Cosmos 2098 Rocket 3.2 16:28:26 10° SSE 16:32:08 45° E 16:36:31 10° NNE
GEOS 3 Rocket 3.8 16:29:30 10° NE 16:34:54 82° NW 16:40:17 10° SW
Cosmos 1697 Rocket 3.9 16:33:13 10° SSE 16:37:28 23° ESE 16:40:11 16° ENE
AQUARIUS 4.2 16:38:25 10° SSE 16:42:43 54° ENE 16:47:02 10° N
Meteor 1-20 Rocket 4.3 16:37:31 10° N 16:42:52 52° ENE 16:48:10 10° SSE
USA 290 2.4 16:44:27 10° NNW 16:47:38 47° ENE 16:50:48 10° SE
IRS-1C 4.1 16:44:35 10° SSE 16:49:54 83° ENE 16:55:16 10° NNW
SL-08 ROCKET BODY 4.4 16:44:41 10° N 16:50:38 89° W 16:56:39 10° S
BREEZE-M DEB (TANK) 3.7 16:50:34 10° WNW 16:53:32 55° N 16:59:05 19° ENE
Cosmos 1626 Rocket 3.9 16:49:16 10° NNW 16:53:35 66° W 16:57:50 10° S
SMAP 3.4 16:49:43 10° S 16:54:21 70° WSW 16:59:02 10° NNW
NOSS 2-2 (C) 3.6 16:51:23 10° WSW 16:54:26 41° NW 16:56:14 19° NNE
CZ-2D R/B 2.6 16:51:43 10° SSE 16:54:51 89° ENE 16:58:01 10° NNW
Thor Agena Rocket 4.4 16:54:06 10° S 16:59:13 54° W 17:04:18 10° NNW
NOSS 3-2 (C) 3.4 16:54:35 10° SSW 16:59:19 46° ESE 17:02:36 22° ENE
Landsat 7 3.9 16:55:51 10° S 17:00:31 79° W 17:05:12 10° NNW
NOSS 3-2 (A) 3.2 16:55:54 10° SW 17:00:56 79° NW 17:05:38 17° NE
Cosmos 1606 Rocket 4.0 16:58:11 10° SSE 17:02:15 39° E 17:04:46 21° NE
Cosmos 2151 2.8 16:58:09 10° N 17:02:19 79° ENE 17:06:29 10° SSE
Cosmos 1241 Rocket 4.5 16:56:02 10° SW 17:02:25 90° S 17:07:34 16° NE
Cosmos 1655 Rocket 4.3 16:56:52 10° N 17:02:46 42° ENE 17:08:36 10° SE
BlueWalker 3 2.4 17:02:09 10° WNW 17:05:42 53° SW 17:08:45 13° SE
Cosmos 1743 2.6 17:03:43 10° NNW 17:06:58 67° W 17:10:11 10° S
ATLAS CENTAUR R/B 0.9 17:05:09 10° NW 17:08:23 67° SW 17:11:31 10° SSE
UNK 4.2 17:04:00 10° N 17:08:32 60° WNW 17:13:01 10° SSW
Cosmos 1076 Rocket 4.1 17:04:43 10° N 17:08:35 32° ENE 17:12:28 10° SE
Resurs 1-3 3.9 17:05:57 10° SE 17:09:56 39° ENE 17:13:57 10° N
Okean 1-7 Rocket 3.4 17:05:58 10° N 17:10:23 69° E 17:14:44 10° SSE
Lacrosse 4 Rocket 3.4 17:07:54 10° W 17:11:07 22° NW 17:14:13 10° N
Cosmos 1544 Rocket 4.2 17:06:52 10° SSW 17:11:11 57° WNW 17:15:34 10° N
Cosmos 2297 Rocket 2.3 17:05:47 10° NNW 17:11:30 83° WSW 17:17:09 10° SSE
Meteor 1-25 Rocket 4.2 17:07:08 10° N 17:12:58 70° ENE 17:18:44 10° SSE
Cosmos 1656 3.8 17:07:58 10° SSW 17:13:35 76° WNW 17:18:29 14° NNE
Cosmos 1503 Rocket 4.0 17:09:38 10° S 17:14:49 64° ESE 17:18:11 22° NNE
Cosmos 1461 3.1 17:11:09 10° SSW 17:14:50 42° ESE 17:15:26 39° E
IRIDIUM 104 4.4 17:12:20 10° N 17:17:35 79° W 17:22:47 10° S
Cosmos 1354 Rocket 4.1 17:16:36 10° S 17:21:42 52° ESE 17:23:56 31° NE
SAR-Lupe-3 4.3 17:23:19 50° SSW 17:23:19 50° SSW 17:25:18 10° SSW
Cosmos 2219 4.0 17:20:06 10° NNW 17:25:06 30° NE 17:25:10 30° NE
SKYMED 2 3.5 17:23:07 28° NNE 17:25:20 64° ESE 17:29:39 10° S
Spot 4 Rocket 3.9 17:20:36 10° SSE 17:25:37 64° ENE 17:30:42 10° N
Lacrosse 5 rocket 2.3 17:24:25 10° W 17:27:45 30° NNW 17:28:28 27° N
Meteor 1-5 Rocket 4.0 17:22:37 10° N 17:27:53 60° ENE 17:33:14 10° SSE
Cosmos 1726 Rocket 3.7 17:24:21 10° S 17:28:52 55° E 17:30:22 38° NE
COSMO-SKYMED 1 2.7 17:29:12 45° ESE 17:29:12 45° ESE 17:32:54 10° S
PSLV R/B 3.4 17:28:53 52° E 17:29:09 53° ENE 17:33:06 10° N
MOS 1 Rocket 3.9 17:25:28 10° S 17:30:12 61° W 17:35:16 10° NNW
CZ-4 R/B 4.3 17:26:40 10° SSE 17:30:36 82° WSW 17:34:34 10° NNW
Cosmos 1602 Rocket 4.4 17:27:06 10° NNW 17:31:23 50° W 17:35:35 10° SSW
SL-19 R/B 4.1 17:29:10 10° SSE 17:34:25 66° ENE 17:39:58 10° N
Cosmos 2084 Rocket 3.3 17:32:29 10° NW 17:36:43 89° ENE 17:37:51 48° SE
CZ-4C R/B 3.0 17:29:53 10° NW 17:36:51 87° SW 17:45:32 10° SE
Cosmos 1777 Rocket 4.1 17:31:39 10° SSW 17:36:55 75° WNW 17:40:21 22° NNE
CZ-2D R/B 3.4 17:34:08 10° SSE 17:38:21 87° WSW 17:42:33 10° NNW
Cosmos 1980 Rocket 3.1 17:33:58 10° SSE 17:37:44 29° SE 17:37:44 29° SE
Cosmos 1867 3.5 17:35:16 10° NW 17:40:46 87° NE 17:44:00 25° SE
YAOGAN 1 2.4 17:39:23 10° SSE 17:43:38 87° ENE 17:47:55 10° NNW
Cosmos 1900 4.3 17:39:23 10° NW 17:44:28 83° SW 17:47:17 26° SSE
Cosmos 2263 Rocket 2.2 17:47:44 10° NNW 17:53:20 59° ENE 17:53:46 57° ENE
Cosmos 1953 Rocket 3.4 17:49:05 10° N 17:53:32 83° E 17:57:59 10° S
CENTAUR R/B 3.9 17:51:40 10° W 17:57:14 32° NNW 18:00:51 21° NNE
Cosmos 1933 4.2 17:55:04 10° SSW 17:58:46 46° WNW 17:59:50 35° NNW
USA 238 DEB 3.9 17:53:14 10° S 17:58:22 41° SE 17:58:22 41° SE
USA 238 3.9 17:53:21 10° S 17:58:26 41° SE 17:58:26 41° SE
USA 81 3.9 17:54:54 10° N 18:00:13 79° E 18:05:28 10° S
Cosmos 2227 Rocket 2.3 17:56:45 10° NNW 18:02:25 76° WSW 18:06:42 18° SSE
Nadezhda 2 Rocket 4.5 17:56:35 10° N 18:01:58 54° NE 18:01:58 54° NE
USA 215 3.4 18:04:26 50° ENE 18:05:34 56° NNE 18:11:58 10° NW
NOAA 6 4.0 18:04:08 10° SSE 18:09:15 81° WSW 18:14:23 10° NNW
BREEZE-M DEB (TANK) 4.2 18:02:56 10° SSW 18:09:02 33° SSE 18:09:02 33° SSE
USA 281 4.4 18:11:46 25° NNE 18:11:46 25° NNE 18:15:21 10° NNW
Cosmos 990 Rocket 4.2 18:14:30 10° SSW 18:19:34 64° WNW 18:20:06 60° NNW
Cosmos 1697 Rocket 2.9 18:15:20 10° SW 18:20:53 65° WNW 18:21:56 54° N
NOSS 3-2 (C) 4.2 18:45:12 10° WSW 18:50:02 41° NW 18:50:02 41° NW
Cosmos 1980 Rocket 4.0 19:17:09 10° SW 19:19:32 25° WSW 19:19:32 25° WSW
Cosmos 2263 Rocket 4.2 19:32:17 10° NW 19:35:29 23° W 19:35:29 23° W
